This is the latest recevied weather packets stored in our database for station/object N1HQ. If no packets are shown the sender has not sent any weather packets the latest 1 day(s).
| Time | Temp. | Humidity | Pressure | Rain* | Wind** | Luminosity | Snow |
|---|---|---|---|---|---|---|---|
| 1778025883 | 23.33° C | 89% | 1012.2 hPa | 0 mm | - | - | - |
| 1778025328 | 23.89° C | 88% | 1012.3 hPa | 0 mm | - | - | - |
| 1778024778 | 23.89° C | 87% | 1012.4 hPa | 0 mm | - | - | - |
| 1778024528 | 23.89° C | 87% | 1012.4 hPa | 0 mm | - | - | - |
| 1778024263 | 23.89° C | 86% | 1012.4 hPa | 0 mm | - | - | - |
| 1778023988 | 24.44° C | 86% | 1012.6 hPa | 0 mm | - | - | - |
| 1778023408 | 24.44° C | 83% | 1012.5 hPa | 0 mm | - | - | - |
| 1778023113 | 25° C | 83% | 1012.3 hPa | 0 mm | - | - | - |
| 1778022613 | 25° C | 81% | 1012.3 hPa | 0 mm | - | - | - |
| 1778022098 | 25° C | 81% | 1012.4 hPa | 0 mm | - | - | - |
| 1778021848 | 25° C | 80% | 1012.3 hPa | 0 mm | - | - | - |
| 1778021068 | 25.56° C | 78% | 1012.4 hPa | 0 mm | - | - | - |
| 1778020518 | 25.56° C | 76% | 1012.6 hPa | 0 mm | - | - | - |
| 1778020233 | 25.56° C | 77% | 1012.5 hPa | 0 mm | - | - | - |
| 1778019693 | 26.11° C | 74% | 1012.5 hPa | 0 mm | - | - | - |
| 1778019415 | 26.11° C | 72% | 1012.5 hPa | 0 mm | - | - | - |
| 1778019143 | 26.11° C | 69% | 1012.4 hPa | 0 mm | - | - | - |
| 1778018888 | 26.11° C | 71% | 1012.4 hPa | 0 mm | - | - | - |
| 1778018588 | 26.11° C | 69% | 1012.4 hPa | 0 mm | - | - | - |
| 1778018333 | 26.11° C | 69% | 1012.4 hPa | 0 mm | - | - | - |
| 1778018071 | 26.67° C | 69% | 1012.3 hPa | 0 mm | - | - | - |
| 1778017813 | 26.11° C | 68% | 1012.3 hPa | 0 mm | - | - | - |
| 1778017555 | 26.11° C | 68% | 1012.4 hPa | 0 mm | - | - | - |
| 1778017313 | 26.11° C | 67% | 1012.3 hPa | 0 mm | - | - | - |
| 1778017048 | 26.11° C | 68% | 1012.3 hPa | 0 mm | - | - | - |
* Rain latest hour (hover to see other rain measurements)
** Current wind speed in m/s (hover to see current wind gust speed)